Rawlins, WY

4:27 AM MDT on May 24, 2017 (GMT -0600)
Rawlins Municipal

Weather History for KRWL - July, 2013

Change the Weather History Date:

Thursday, July 4, 2013

  Actual Average Record
Temperature  
Mean Temperature 67 °F 65 °F  
Max Temperature 86 °F 82 °F 95 °F (1996)
Min Temperature 48 °F 49 °F 36 °F (1997)
Degree Days  
Heating Degree Days 0 2  
Month to date heating degree days 0 8  
Since 1 June heating degree days 101 198  
Since 1 July heating degree days 0 8  
Cooling Degree Days 2 2  
Month to date cooling degree days 12 8  
Year to date cooling degree days 60 27  
Since 1 June cooling degree days 59 27  
Growing Degree Days 16 (Base 50)    
Moisture  
Dew Point 47 °F    
Average Humidity 52    
Maximum Humidity 86    
Minimum Humidity 17    
Precipitation  
Precipitation 0.11 in 0.03 in 0.32 in (1975)
Month to date precipitation 0.13 0.09  
Year to date precipitation 2.23 5.04  
Sea Level Pressure  
Sea Level Pressure 29.91 in    
Wind  
Wind Speed 6 mph (NW)    
Max Wind Speed 20 mph    
Max Gust Speed 23 mph    
Visibility 10 miles    
Events Rain , Thunderstorm    
T = Trace of Precipitation, MM = Missing Value Source: NWS Daily Summary

Daily Weather History Graph

Daily Weather History Graph

Search for Another Location

Airport or City:

Trip Planner

Search our weather history database for the weather conditions in past years. The results will help you decide how hot, cold, wet, or windy it might be!

Date:

Astronomy

Jul. 04, 2013 Rise Set
Actual Time 5:39 AM MDT 8:46 PM MDT
Civil Twilight 5:05 AM MDT 9:20 PM MDT
Nautical Twilight 4:22 AM MDT 10:04 PM MDT
Astronomical Twilight 3:30 AM MDT 10:55 PM MDT
Moon 2:59 AM MDT (7/4) 5:52 PM MDT (7/4)
Length of Visible Light 16h 15m
Length of Day
15h 07m
Waning Crescent, 11% of the Moon is Illuminated
Jul 4
Waning Crescent
Jul 8
New
Jul 15
First Quarter
Jul 22
Full
Jul 29
Last Quarter

Hourly Weather History & Observations

Time (MDT) Temp. Dew Point Humidity Pressure Visibility Wind Dir Wind Speed Gust Speed Precip Events Conditions
12:53 AM 62.1 °F 50.0 °F 65% 29.86 in 10.0 mi West 8.1 mph - N/A   Mostly Cloudy
1:53 AM 61.0 °F 48.9 °F 64% 29.85 in 10.0 mi WSW 9.2 mph - N/A   Clear
2:53 AM 57.9 °F 48.0 °F 70% 29.87 in 10.0 mi North 3.5 mph - N/A   Clear
3:53 AM 53.1 °F 46.9 °F 80% 29.88 in 10.0 mi Calm Calm - N/A   Clear
4:53 AM 48.9 °F 45.0 °F 86% 29.91 in 10.0 mi Calm Calm - N/A   Clear
5:53 AM 48.0 °F 45.0 °F 89% 29.95 in 10.0 mi Calm Calm - N/A   Clear
6:53 AM 54.0 °F 48.9 °F 83% 29.94 in 10.0 mi Calm Calm - N/A   Clear
7:53 AM 61.0 °F 48.0 °F 62% 29.93 in 10.0 mi Calm Calm - N/A   Clear
8:53 AM 66.9 °F 48.0 °F 51% 29.91 in 10.0 mi SSE 4.6 mph - N/A   Clear
9:53 AM 71.1 °F 48.0 °F 44% 29.91 in 10.0 mi South 6.9 mph - N/A   Clear
10:53 AM 75.0 °F 45.0 °F 34% 29.86 in 10.0 mi West 6.9 mph - N/A   Clear
11:53 AM 80.1 °F 44.1 °F 28% 29.85 in 10.0 mi WNW 6.9 mph - N/A   Partly Cloudy
12:53 PM 82.0 °F 44.1 °F 26% 29.81 in 10.0 mi WSW 11.5 mph 16.1 mph N/A   Clear
1:53 PM 80.1 °F 43.0 °F 27% 29.80 in 10.0 mi West 8.1 mph 17.3 mph N/A   Clear
2:53 PM 82.9 °F 39.0 °F 21% 29.78 in 10.0 mi Calm Calm - N/A   Clear
3:53 PM 84.0 °F 37.0 °F 19% 29.78 in 10.0 mi NNW 6.9 mph - N/A   Partly Cloudy
4:53 PM 84.0 °F 36.0 °F 18% 29.77 in 10.0 mi Variable 3.5 mph - N/A   Clear
5:53 PM 82.9 °F 36.0 °F 19% 29.76 in 10.0 mi WSW 8.1 mph - N/A   Scattered Clouds
6:24 PM 82.4 °F 39.2 °F 21% 30.05 in 10.0 mi SW 8.1 mph - N/A Thunderstorm Mostly Cloudy
6:44 PM 78.8 °F 41.0 °F 26% 30.08 in 10.0 mi NW 13.8 mph - N/A Thunderstorm Overcast
6:53 PM 77.0 °F 43.0 °F 30% 29.81 in 10.0 mi WNW 16.1 mph 23.0 mph N/A Thunderstorm Overcast
7:03 PM 71.6 °F 48.2 °F 43% 30.08 in 9.0 mi NW 9.2 mph - 0.01 in Rain , Thunderstorm Light Thunderstorms and Rain
7:30 PM 66.2 °F 53.6 °F 64% 30.08 in 10.0 mi NE 15.0 mph - 0.04 in Rain , Thunderstorm Light Rain
7:38 PM 64.4 °F 53.6 °F 68% 30.09 in 10.0 mi NE 13.8 mph - 0.04 in Rain Light Rain
7:53 PM 64.9 °F 54.0 °F 68% 29.84 in 10.0 mi NNE 12.7 mph - 0.04 in Rain , Thunderstorm Light Rain
8:10 PM 64.4 °F 55.4 °F 73% 30.12 in 10.0 mi North 8.1 mph - 0.01 in Rain , Thunderstorm Light Rain
8:31 PM 62.6 °F 55.4 °F 77% 30.15 in 10.0 mi WNW 12.7 mph - 0.01 in Rain Light Rain
8:53 PM 62.1 °F 55.9 °F 80% 29.90 in 7.0 mi North 3.5 mph - 0.03 in Rain Light Rain
9:53 PM 61.0 °F 57.0 °F 87% 29.88 in 10.0 mi NNE 5.8 mph - 0.03 in   Overcast
10:53 PM 61.0 °F 55.9 °F 83% 29.85 in 10.0 mi ENE 5.8 mph - 0.00 in Rain Light Rain
11:53 PM 60.1 °F 55.9 °F 86% 29.80 in 10.0 mi East 9.2 mph - 0.01 in Rain Light Rain